Lid_Strength_Index
10 12 14 12 12 11 11 12 12 10 9 11 10 10 8 7 7 7 7 6 6 6 4 3 4 4 4 4 4 5 3 3 3 3 2 3 4 3 2 0 1 1 1 1
11 13 10 9 9 10 11 12 13 9 9 10 10 10 8 7 7 7 7 6 6 6 5 4 4 4 3 3 4 5 5 4 4 4 4 3 1 1 1 1 2 2 2 2
11 10 7 9 9 10 11 12 12 11 9 9 11 14 12 9 7 6 6 5 5 6 5 5 5 4 3 3 4 4 6 5 4 3 3 3 2 2 2 2 3 3 2 1
10 8 8 9 10 10 12 9 9 9 10 13 11 15 13 13 10 7 7 6 6 5 5 5 5 5 5 4 3 4 4 4 3 3 4 5 4 4 4 4 4 3 1 1
10 9 9 10 9 8 10 9 9 10 12 14 13 15 13 10 10 10 9 7 6 5 5 5 6 5 5 3 4 4 4 4 4 4 5 5 4 4 5 3 4 3 3 1
9 7 8 8 7 8 8 9 11 12 14 16 14 14 14 13 9 8 7 7 6 5 6 6 6 5 5 4 5 4 4 4 3 3 3 3 4 5 5 4 3 3 3 3
10 9 8 7 9 9 10 13 16 16 16 16 13 14 14 10 8 7 8 7 6 5 6 7 7 6 6 6 6 3 4 4 3 3 3 3 3 4 5 4 3 4 4 3
13 13 9 8 9 11 12 13 16 18 17 15 12 15 12 8 8 6 6 6 5 6 6 7 6 6 6 6 5 3 4 3 3 3 2 3 4 4 3 3 4 4 3 3
13 12 8 7 8 8 12 14 12 14 15 16 15 12 9 8 8 7 7 6 6 7 7 7 7 6 6 5 4 3 3 3 3 2 3 3 2 3 3 3 2 3 3 2
10 13 8 7 8 9 10 10 14 15 17 18 15 14 13 10 9 8 8 7 8 7 7 7 7 6 5 5 3 2 2 3 3 3 3 3 3 3 3 4 3 3 2 2
10 11 11 9 11 11 11 12 13 14 14 17 17 15 10 9 9 8 8 6 6 6 6 6 7 6 5 4 3 3 2 3 3 2 3 3 4 4 4 3 2 2 3 3
9 12 13 11 8 7 9 11 13 15 16 15 15 15 10 8 7 8 7 6 6 6 5 6 6 6 5 4 3 3 3 3 2 2 3 3 3 3 3 3 3 3 3 3
9 13 15 13 12 10 11 10 11 12 13 14 16 15 8 8 8 7 7 7 6 6 6 6 5 5 5 4 3 3 3 3 3 2 3 3 4 4 4 4 4 2 3 3
7 11 13 14 13 11 12 10 10 12 15 14 14 13 10 9 8 8 7 6 7 7 6 6 5 5 5 5 4 3 4 3 3 3 3 4 5 5 3 4 3 3 3 4
10 13 11 10 10 10 10 10 10 12 12 13 12 12 10 10 9 8 7 8 6 6 6 5 5 5 5 5 4 4 4 4 4 4 4 4 4 3 3 3 4 4 5 5
9 13 12 12 9 10 11 9 10 10 10 11 11 11 9 9 9 8 7 6 6 6 6 5 4 4 4 4 4 4 4 4 4 4 4 3 3 4 5 5 5 5 6 6
10 11 13 15 11 11 14 11 9 9 9 10 12 11 9 9 8 8 7 6 6 6 5 5 4 4 4 4 4 4 4 4 4 4 3 4 5 6 6 6 6 7 7 7
11 12 13 15 13 18 12 8 8 9 8 9 9 9 9 9 8 7 6 6 6 5 5 5 4 4 4 3 4 4 4 4 5 6 5 5 6 6 6 6 7 7 7 7
8 11 14 16 16 12 11 9 9 10 10 8 9 8 8 7 7 7 5 5 5 5 4 4 4 4 4 4 4 5 5 5 5 6 6 6 6 6 6 7 7 7 6 6
8 9 12 15 18 19 12 8 6 7 12 7 7 8 8 7 11 9 6 5 5 5 4 5 4 4 5 5 5 5 5 6 6 6 6 6 6 6 7 7 7 6 6 6
13 12 14 15 16 13 9 7 6 13 12 7 8 8 8 9 8 6 5 5 5 5 5 5 5 5 5 6 6 6 6 7 6 6 6 6 6 7 7 7 6 6 8 8
13 14 14 14 17 17 7 7 11 9 8 8 7 8 7 7 6 5 5 6 6 6 6 5 6 6 6 6 6 7 7 6 6 6 6 6 7 6 6 7 7 8 9 9
13 11 13 12 13 8 7 9 6 6 7 7 8 7 6 6 6 5 6 6 6 6 6 5 6 6 6 6 6 6 7 6 7 7 7 7 7 7 6 7 8 8 8 9
10 8 12 11 10 9 8 6 6 6 6 6 5 5 5 6 5 5 5 6 6 6 6 6 6 6 7 6 6 6 6 6 6 7 7 8 8 7 6 6 6 8 8 9
10 9 10 11 9 8 7 7 6 5 5 5 5 5 5 5 5 5 5 6 5 6 6 6 6 6 6 6 6 6 6 6 7 7 7 7 7 6 6 6 6 6 7 7
10 10 12 12 8 8 8 6 5 6 5 5 5 5 5 5 5 4 5 5 5 5 5 6 6 6 6 6 6 6 6 6 7 7 7 6 6 6 6 6 6 6 5 6